OE3EMC-13 Weather Reports


time (UTC)temp
F
wind
direction
speed
knots
gust
knots
rain 1hr
in
rain 24hr
in
rain mn
in
humidity
%
barometer
mb
20260507155313 60 360 2.6 3.5 0.00 0.00 0.00 52 1100.0
20260507154313 60 360 2.6 3.5 0.00 0.00 0.00 52 1100.0
20260507153313 60 22 3.5 3.5 0.00 0.00 0.00 52 1100.0
20260507152313 60 22 3.5 3.5 0.00 0.00 0.00 52 1100.0
20260507151313 63 90 3.5 1.7 0.00 0.00 0.00 49 1100.0
20260507150313 63 90 3.5 1.7 0.00 0.00 0.00 49 1100.0
20260507145313 62 157 2.6 0.9 0.00 0.00 0.00 50 1100.0
20260507144312 62 157 2.6 0.9 0.00 0.00 0.00 50 1100.0
20260507143314 62 180 1.7 2.6 0.00 0.00 0.00 50 1100.0
20260507142314 62 180 1.7 2.6 0.00 0.00 0.00 50 1100.0
20260507141312 61 337 2.6 2.6 0.00 0.00 0.00 49 1100.0
20260507140312 61 337 2.6 2.6 0.00 0.00 0.00 49 1100.0
20260507135313 64 337 2.6 2.6 0.00 0.00 0.00 45 1100.0
20260507134311 64 337 2.6 2.6 0.00 0.00 0.00 45 1100.0
20260507133313 64 360 2.6 3.5 0.00 0.00 0.00 47 1100.0
20260507132311 64 360 2.6 3.5 0.00 0.00 0.00 47 1100.0
20260507131311 64 45 4.3 2.6 0.00 0.00 0.00 47 1100.0
20260507130311 64 45 4.3 2.6 0.00 0.00 0.00 47 1100.0
20260507125312 62 157 2.6 3.5 0.00 0.00 0.00 51 1100.0
20260507124312 62 157 2.6 3.5 0.00 0.00 0.00 51 1100.0
20260507123311 62 337 2.6 6.1 0.00 0.00 0.00 52 1100.0
20260507122310 62 337 2.6 6.1 0.00 0.00 0.00 52 1100.0
20260507121312 62 112 2.6 1.7 0.00 0.00 0.00 49 1100.0
20260507120310 62 112 2.6 1.7 0.00 0.00 0.00 49 1100.0
20260507115311 63 337 3.5 4.3 0.00 0.00 0.00 49 1100.0
20260507114310 63 337 3.5 4.3 0.00 0.00 0.00 49 1100.0
20260507113311 63 337 4.3 3.5 0.00 0.00 0.00 51 1100.0
20260507112311 63 337 4.3 3.5 0.00 0.00 0.00 51 1100.0
20260507111309 62 337 3.5 6.1 0.00 0.00 0.00 53 1100.0
20260507110309 62 337 3.5 6.1 0.00 0.00 0.00 53 1100.0
20260507105311 62 45 3.5 7.0 0.00 0.00 0.00 53 1100.0
20260507104316 62 45 3.5 7.0 0.00 0.00 0.00 53 1100.0
20260507103315 59 67 3.5 6.1 0.00 0.00 0.00 57 1100.0
20260507102315 59 67 3.5 6.1 0.00 0.00 0.00 57 1100.0
20260507101313 58 112 3.5 0.9 0.00 0.00 0.00 58 1100.0
20260507100313 58 112 3.5 0.9 0.00 0.00 0.00 58 1100.0
20260507095313 59 112 3.5 1.7 0.00 0.00 0.00 56 1100.0
20260507094314 59 112 3.5 1.7 0.00 0.00 0.00 56 1100.0
20260507093313 61 45 3.5 2.6 0.00 0.00 0.00 55 1100.0
20260507092313 61 45 3.5 2.6 0.00 0.00 0.00 55 1100.0
20260507091314 58 337 3.5 4.3 0.00 0.00 0.00 58 1100.0
20260507090314 58 337 3.5 4.3 0.00 0.00 0.00 58 1100.0
20260507085312 57 67 3.5 5.2 0.00 0.00 0.00 61 1100.0
20260507084312 57 67 3.5 5.2 0.00 0.00 0.00 61 1100.0
20260507083312 55 45 3.5 12.2 0.00 0.00 0.00 66 1100.0
20260507082313 55 45 3.5 12.2 0.00 0.00 0.00 66 1100.0
20260507081312 52 337 3.5 1.7 0.00 0.00 0.00 71 1100.0
20260507080312 52 337 3.5 1.7 0.00 0.00 0.00 71 1100.0
20260507075311 51 360 3.5 2.6 0.00 0.00 0.00 74 1100.0
20260507074311 51 360 3.5 2.6 0.00 0.00 0.00 74 1100.0
20260507073311 49 90 2.6 4.3 0.00 0.00 0.00 75 1100.0
20260507072312 49 90 2.6 4.3 0.00 0.00 0.00 75 1100.0
20260507071312 49 45 3.5 2.6 0.00 0.00 0.00 76 1100.0
20260507070311 49 45 3.5 2.6 0.00 0.00 0.00 76 1100.0
20260507065311 48 112 2.6 0.9 0.00 0.00 0.00 79 1100.0
20260507064310 48 112 2.6 0.9 0.00 0.00 0.00 79 1100.0
20260507063312 47 90 3.5 4.3 0.00 0.00 0.00 81 1100.0
20260507062310 47 90 3.5 4.3 0.00 0.00 0.00 81 1100.0
20260507061310 46 22 2.6 7.0 0.00 0.00 0.00 81 1100.0
20260507060310 46 22 2.6 7.0 0.00 0.00 0.00 81 1100.0
20260507055310 47 90 3.5 2.6 0.00 0.00 0.00 82 1100.0
20260507054311 47 90 3.5 2.6 0.00 0.00 0.00 82 1100.0
20260507053309 46 90 3.5 11.3 0.00 0.00 0.00 83 1100.0
20260507052309 46 90 3.5 11.3 0.00 0.00 0.00 83 1100.0
20260507051311 46 45 2.6 6.1 0.00 0.00 0.00 84 1100.0
20260507050314 46 45 2.6 6.1 0.00 0.00 0.00 84 1100.0
20260507045315 45 337 3.5 5.2 0.00 0.00 0.00 84 1100.0
20260507044314 45 337 3.5 5.2 0.00 0.00 0.00 84 1100.0
20260507043315 45 135 2.6 3.5 0.00 0.00 0.00 85 1100.0
20260507042314 45 135 2.6 3.5 0.00 0.00 0.00 85 1100.0
20260507041313 45 360 2.6 5.2 0.00 0.00 0.00 86 1100.0
20260507040313 45 360 2.6 5.2 0.00 0.00 0.00 86 1100.0
20260507035313 45 135 2.6 2.6 0.00 0.00 0.00 86 1100.0
20260507034313 45 135 2.6 2.6 0.00 0.00 0.00 86 1100.0
20260507033313 46 247 3.5 2.6 0.00 0.00 0.00 86 1100.0
20260507032313 46 247 3.5 2.6 0.00 0.00 0.00 86 1100.0
20260507031312 46 22 3.5 3.5 0.00 0.00 0.00 85 1100.0
20260507030312 46 22 3.5 3.5 0.00 0.00 0.00 85 1100.0
20260507025312 46 337 5.2 11.3 0.00 0.00 0.00 85 1100.0
20260507024314 46 337 5.2 11.3 0.00 0.00 0.00 85 1100.0
20260507023312 47 337 4.3 6.1 0.00 0.00 0.00 85 1100.0
20260507022313 47 337 4.3 6.1 0.00 0.00 0.00 85 1100.0
20260507021313 47 45 4.3 3.5 0.00 0.00 0.00 85 1100.0
20260507020313 47 45 4.3 3.5 0.00 0.00 0.00 85 1100.0
20260507015311 47 360 4.3 6.1 0.00 0.00 0.00 85 1100.0
20260507014311 47 360 4.3 6.1 0.00 0.00 0.00 85 1100.0
20260507013312 48 360 4.3 6.1 0.00 0.00 0.00 85 1100.0
20260507012312 48 360 4.3 6.1 0.00 0.00 0.00 85 1100.0
20260507011311 48 337 4.3 6.1 0.00 0.00 0.00 85 1100.0
20260507010312 48 337 4.3 6.1 0.00 0.00 0.00 85 1100.0
20260507005311 48 337 4.3 11.3 0.00 0.00 0.00 85 1100.0
20260507004310 48 337 4.3 11.3 0.00 0.00 0.00 85 1100.0
20260507003311 49 292 4.3 5.2 0.00 0.00 0.00 85 1100.0
20260507002310 49 292 4.3 5.2 0.00 0.00 0.00 85 1100.0
20260507001310 49 292 4.3 8.7 0.00 0.00 0.00 85 1100.0
20260507000310 49 292 4.3 8.7 0.00 0.00 0.00 85 1100.0
20260506235310 49 337 3.5 4.3 0.00 0.00 0.00 85 1100.0
20260506234310 49 337 3.5 4.3 0.00 0.00 0.00 85 1100.0
20260506233309 49 360 3.5 9.6 0.00 0.00 0.00 84 1100.0
20260506232314 49 360 3.5 9.6 0.00 0.00 0.00 84 1100.0
20260506231314 50 360 2.6 5.2 0.00 0.00 0.00 83 1100.0
20260506230316 50 360 2.6 5.2 0.00 0.00 0.00 83 1100.0
20260506225315 50 360 2.6 7.8 0.00 0.00 0.00 84 1100.0
20260506224314 50 360 2.6 7.8 0.00 0.00 0.00 84 1100.0
20260506223313 51 315 2.6 7.0 0.00 0.00 0.00 84 1100.0
20260506222313 51 315 2.6 7.0 0.00 0.00 0.00 84 1100.0
20260506221314 51 315 4.3 5.2 0.00 0.00 0.00 84 1100.0
20260506220314 51 315 4.3 5.2 0.00 0.00 0.00 84 1100.0
20260506215313 50 67 3.5 2.6 0.00 0.00 0.00 82 1100.0
20260506214314 50 67 3.5 2.6 0.00 0.00 0.00 82 1100.0
20260506213313 50 45 1.7 3.5 0.00 0.00 0.00 80 1100.0
20260506212312 50 45 1.7 3.5 0.00 0.00 0.00 80 1100.0
20260506211314 51 315 0.9 1.7 0.00 0.00 0.00 80 1100.0
20260506210312 51 315 0.9 1.7 0.00 0.00 0.00 80 1100.0
20260506205312 52 360 0.9 1.7 0.00 0.00 0.00 78 1100.0
20260506204312 52 360 0.9 1.7 0.00 0.00 0.00 78 1100.0
20260506203312 53 360 1.7 2.6 0.00 0.00 0.00 76 1100.0
20260506202312 53 360 1.7 2.6 0.00 0.00 0.00 76 1100.0
20260506201311 54 45 2.6 5.2 0.00 0.00 0.00 71 1100.0
20260506200313 54 45 2.6 5.2 0.00 0.00 0.00 71 1100.0
20260506195312 56 22 2.6 1.7 0.00 0.00 0.00 69 1100.0
20260506194312 56 22 2.6 1.7 0.00 0.00 0.00 69 1100.0
20260506193313 58 67 4.3 3.5 0.00 0.00 0.00 64 1100.0
20260506192311 58 67 4.3 3.5 0.00 0.00 0.00 64 1100.0
20260506191312 60 292 2.6 2.6 0.00 0.00 0.00 52 1100.0
20260506190312 60 292 2.6 2.6 0.00 0.00 0.00 52 1100.0
20260506185310 61 360 5.2 6.1 0.00 0.00 0.00 51 1100.0
20260506184310 61 360 5.2 6.1 0.00 0.00 0.00 51 1100.0
20260506183310 62 292 3.5 4.3 0.00 0.00 0.00 51 1100.0
20260506182310 62 292 3.5 4.3 0.00 0.00 0.00 51 1100.0
20260506181310 63 360 2.6 2.6 0.00 0.00 0.00 49 1100.0
20260506180310 63 360 2.6 2.6 0.00 0.00 0.00 49 1100.0
20260506175309 65 67 1.7 0.0 0.00 0.00 0.00 46 1100.0
20260506174315 65 67 1.7 0.0 0.00 0.00 0.00 46 1100.0
20260506173315 67 337 3.5 3.5 0.00 0.00 0.00 43 1100.0
20260506172314 67 337 3.5 3.5 0.00 0.00 0.00 43 1100.0
20260506171315 69 360 1.7 1.7 0.00 0.00 0.00 41 1100.0
20260506170314 69 360 1.7 1.7 0.00 0.00 0.00 41 1100.0
20260506165313 71 337 3.5 5.2 0.00 0.00 0.00 40 1100.0
20260506164313 71 337 3.5 5.2 0.00 0.00 0.00 40 1100.0
20260506163313 73 360 2.6 6.1 0.00 0.00 0.00 39 1100.0
20260506162313 73 360 2.6 6.1 0.00 0.00 0.00 39 1100.0
20260506161314 71 292 1.7 1.7 0.00 0.00 0.00 42 1100.0
20260506160313 71 292 1.7 1.7 0.00 0.00 0.00 42 1100.0